This is the latest recevied weather packets stored in our database for station/object KD4MBW. If no packets are shown the sender has not sent any weather packets the latest 10 day(s).
| Time | Temp. | Humidity | Pressure | Rain* | Wind** | Luminosity | Snow |
|---|---|---|---|---|---|---|---|
| 1777563267 | 26.11° C | 69% | 1013.1 hPa | 0 mm | - | 700 W/m² | - |
| 1777562963 | 25.56° C | 72% | 1013.2 hPa | 0 mm | - | 693 W/m² | - |
| 1777562660 | 25.56° C | 70% | 1013.3 hPa | 0 mm | - | 678 W/m² | - |
| 1777562355 | 25.56° C | 71% | 1013.3 hPa | 0 mm | - | 667 W/m² | - |
| 1777562050 | 25° C | 72% | 1012.8 hPa | 0 mm | - | 657 W/m² | - |
| 1777561748 | 25.56° C | 72% | 1012.9 hPa | 0 mm | - | 645 W/m² | - |
| 1777561443 | 25° C | 74% | 1013.2 hPa | 0 mm | - | 633 W/m² | - |
| 1777561138 | 24.44° C | 76% | 1013.1 hPa | 0 mm | - | 624 W/m² | - |
| 1777560833 | 24.44° C | 77% | 1012.9 hPa | 0 mm | - | 612 W/m² | - |
| 1777560531 | 23.89° C | 79% | 1013.1 hPa | 0 mm | - | 599 W/m² | - |
| 1777560229 | 23.89° C | 79% | 1012.9 hPa | 0 mm | - | 611 W/m² | - |
| 1777559926 | 23.89° C | 80% | 1012.8 hPa | 0 mm | - | 558 W/m² | - |
| 1777559620 | 23.33° C | 81% | 1012.7 hPa | 0 mm | - | 356 W/m² | - |
| 1777559319 | 23.33° C | 81% | 1012.8 hPa | 0 mm | - | 378 W/m² | - |
| 1777559014 | 23.33° C | 83% | 1013.1 hPa | 0 mm | - | 508 W/m² | - |
| 1777558710 | 23.33° C | 84% | 1013.1 hPa | 0 mm | - | 313 W/m² | - |
| 1777558406 | 23.33° C | 84% | 1013.1 hPa | 0 mm | - | 601 W/m² | - |
| 1777558102 | 23.33° C | 85% | 1013.1 hPa | 0 mm | - | 524 W/m² | - |
| 1777557799 | 23.33° C | 85% | 1012.8 hPa | 0 mm | - | 488 W/m² | - |
| 1777557496 | 22.78° C | 87% | 1012.8 hPa | 0 mm | - | 480 W/m² | - |
| 1777557193 | 22.78° C | 88% | 1013.1 hPa | 0 mm | - | 201 W/m² | - |
| 1777556888 | 22.78° C | 89% | 1012.7 hPa | 0 mm | - | 198 W/m² | - |
| 1777556584 | 22.78° C | 90% | 1012.5 hPa | 0 mm | - | 223 W/m² | - |
| 1777556283 | 22.78° C | 91% | 1012.7 hPa | 0 mm | - | 250 W/m² | - |
| 1777555980 | 22.22° C | 92% | 1012.8 hPa | 0 mm | - | 197 W/m² | - |
* Rain latest hour (hover to see other rain measurements)
** Current wind speed in m/s (hover to see current wind gust speed)